Time,TemperatureF,DewpointF,PressureIn,WindDirection,WindDirectionDegrees,WindSpeedMPH,WindSpeedGustMPH,Humidity,HourlyPrecipIn,Conditions,Clouds,dailyrainin,SolarRadiationWatts/m^2,SoftwareType,DateUTC
2013-02-22 00:01:00,25.0,23.0,29.89,ENE,71,9.0,-999.0,93,-99.99,,,0.00,0,weatherlink.com 1.10,2013-02-22 06:01:00,
2013-02-22 00:16:00,25.0,23.0,29.88,ENE,77,12.0,-999.0,93,-99.99,,,0.00,0,weatherlink.com 1.10,2013-02-22 06:16:00,
2013-02-22 00:31:00,25.0,23.0,29.88,ENE,78,11.0,-999.0,93,-99.99,,,0.00,0,weatherlink.com 1.10,2013-02-22 06:31:00,
2013-02-22 00:46:00,25.1,23.0,29.87,ENE,76,11.0,-999.0,93,-99.99,,,0.00,0,weatherlink.com 1.10,2013-02-22 06:46:00,
2013-02-22 01:01:00,25.1,23.0,29.86,East,82,13.0,-999.0,93,-99.99,,,0.00,0,weatherlink.com 1.10,2013-02-22 07:01:00,
2013-02-22 01:16:00,25.1,23.0,29.86,ENE,71,9.0,-999.0,93,-99.99,,,0.00,0,weatherlink.com 1.10,2013-02-22 07:16:00,
2013-02-22 01:31:00,25.1,23.0,29.86,ENE,73,6.0,-999.0,93,-99.99,,,0.00,0,weatherlink.com 1.10,2013-02-22 07:31:00,
2013-02-22 01:46:00,25.3,24.0,29.85,East,81,9.0,-999.0,93,-99.99,,,0.00,0,weatherlink.com 1.10,2013-02-22 07:46:00,
2013-02-22 02:01:00,25.3,24.0,29.84,ENE,78,10.0,-999.0,93,-99.99,,,0.00,0,weatherlink.com 1.10,2013-02-22 08:01:00,
2013-02-22 02:16:00,25.3,24.0,29.83,East,82,10.0,-999.0,93,-99.99,,,0.00,0,weatherlink.com 1.10,2013-02-22 08:16:00,
2013-02-22 02:31:00,25.4,24.0,29.82,East,79,12.0,-999.0,93,-99.99,,,0.00,0,weatherlink.com 1.10,2013-02-22 08:31:00,
2013-02-22 02:46:00,25.4,24.0,29.82,East,82,11.0,-999.0,93,-99.99,,,0.00,0,weatherlink.com 1.10,2013-02-22 08:46:00,
2013-02-22 03:01:00,25.6,24.0,29.81,East,88,13.0,-999.0,93,-99.99,,,0.00,0,weatherlink.com 1.10,2013-02-22 09:01:00,
2013-02-22 03:16:00,25.7,24.0,29.80,ENE,75,12.0,-999.0,93,-99.99,,,0.00,0,weatherlink.com 1.10,2013-02-22 09:16:00,
2013-02-22 03:31:00,25.7,24.0,29.79,ENE,75,11.0,-999.0,93,-99.99,,,0.00,0,weatherlink.com 1.10,2013-02-22 09:31:00,
2013-02-22 03:46:00,25.8,24.0,29.79,ENE,74,10.0,-999.0,93,-99.99,,,0.00,0,weatherlink.com 1.10,2013-02-22 09:46:00,
2013-02-22 04:01:00,26.0,24.0,29.78,ENE,76,10.0,-999.0,93,-99.99,,,0.00,0,weatherlink.com 1.10,2013-02-22 10:01:00,
2013-02-22 04:16:00,26.0,24.0,29.78,ENE,74,7.0,-999.0,93,-99.99,,,0.00,0,weatherlink.com 1.10,2013-02-22 10:16:00,
2013-02-22 04:31:00,26.1,24.0,29.78,ENE,75,10.0,-999.0,93,-99.99,,,0.00,0,weatherlink.com 1.10,2013-02-22 10:31:00,
2013-02-22 04:46:00,26.1,24.0,29.77,East,79,7.0,-999.0,93,-99.99,,,0.00,0,weatherlink.com 1.10,2013-02-22 10:46:00,
2013-02-22 05:01:00,26.4,25.0,29.77,East,88,11.0,-999.0,93,-99.99,,,0.00,0,weatherlink.com 1.10,2013-02-22 11:01:00,
2013-02-22 05:16:00,26.7,25.0,29.77,ENE,71,6.0,-999.0,93,-99.99,,,0.00,0,weatherlink.com 1.10,2013-02-22 11:16:00,
2013-02-22 05:31:00,26.9,25.0,29.76,ENE,78,10.0,-999.0,93,-99.99,,,0.00,0,weatherlink.com 1.10,2013-02-22 11:31:00,
2013-02-22 05:46:00,27.2,26.0,29.76,East,81,7.0,-999.0,93,-99.99,,,0.00,0,weatherlink.com 1.10,2013-02-22 11:46:00,
2013-02-22 06:01:00,27.3,26.0,29.76,East,79,10.0,-999.0,93,-99.99,,,0.00,0,weatherlink.com 1.10,2013-02-22 12:01:00,
2013-02-22 06:16:00,27.5,26.0,29.76,East,87,6.0,-999.0,93,-99.99,,,0.00,0,weatherlink.com 1.10,2013-02-22 12:16:00,
2013-02-22 06:31:00,27.5,26.0,29.76,East,94,9.0,-999.0,93,-99.99,,,0.00,0,weatherlink.com 1.10,2013-02-22 12:31:00,
2013-02-22 06:46:00,27.5,26.0,29.76,East,96,8.0,-999.0,93,-99.99,,,0.00,0,weatherlink.com 1.10,2013-02-22 12:46:00,
2013-02-22 07:01:00,27.6,26.0,29.76,East,95,9.0,-999.0,93,-99.99,,,0.00,9,weatherlink.com 1.10,2013-02-22 13:01:00,
2013-02-22 07:16:00,27.8,26.0,29.76,East,92,5.0,-999.0,93,-99.99,,,0.00,16,weatherlink.com 1.10,2013-02-22 13:16:00,
2013-02-22 07:31:00,27.9,26.0,29.76,East,95,7.0,-999.0,93,-99.99,,,0.00,35,weatherlink.com 1.10,2013-02-22 13:31:00,
2013-02-22 07:46:00,28.1,26.0,29.76,East,95,5.0,-999.0,93,-99.99,,,0.00,40,weatherlink.com 1.10,2013-02-22 13:46:00,
2013-02-22 08:01:00,28.4,27.0,29.76,East,82,4.0,-999.0,94,-99.99,,,0.00,54,weatherlink.com 1.10,2013-02-22 14:01:00,
2013-02-22 08:16:00,28.5,27.0,29.77,East,90,5.0,-999.0,94,-99.99,,,0.00,77,weatherlink.com 1.10,2013-02-22 14:16:00,
2013-02-22 08:31:00,28.8,27.0,29.77,East,93,3.0,-999.0,94,-99.99,,,0.00,118,weatherlink.com 1.10,2013-02-22 14:31:00,
2013-02-22 08:47:00,29.1,28.0,29.77,ESE,116,3.0,-999.0,94,-99.99,,,0.00,162,weatherlink.com 1.10,2013-02-22 14:47:00,
2013-02-22 09:02:00,29.7,28.0,29.78,SE,133,6.0,-999.0,94,-99.99,,,0.00,176,weatherlink.com 1.10,2013-02-22 15:02:00,
2013-02-22 09:17:00,29.8,28.0,29.78,SSE,157,4.0,-999.0,94,-99.99,,,0.00,171,weatherlink.com 1.10,2013-02-22 15:17:00,
2013-02-22 09:32:00,30.6,29.0,29.78,South,184,10.0,-999.0,95,-99.99,,,0.00,183,weatherlink.com 1.10,2013-02-22 15:32:00,
2013-02-22 09:47:00,31.0,30.0,29.78,SSW,194,11.0,-999.0,95,-99.99,,,0.00,192,weatherlink.com 1.10,2013-02-22 15:47:00,
2013-02-22 10:02:00,31.2,30.0,29.78,SW,216,11.0,-999.0,95,-99.99,,,0.00,248,weatherlink.com 1.10,2013-02-22 16:02:00,
2013-02-22 10:17:00,31.3,30.0,29.79,WSW,253,14.0,-999.0,95,-99.99,,,0.00,250,weatherlink.com 1.10,2013-02-22 16:17:00,
2013-02-22 10:32:00,31.3,30.0,29.79,WSW,244,13.0,-999.0,95,-99.99,,,0.00,350,weatherlink.com 1.10,2013-02-22 16:32:00,
2013-02-22 10:47:00,31.5,30.0,29.79,WSW,246,14.0,-999.0,94,-99.99,,,0.00,396,weatherlink.com 1.10,2013-02-22 16:47:00,
2013-02-22 11:02:00,31.6,30.0,29.80,SW,236,13.0,-999.0,93,-99.99,,,0.01,422,weatherlink.com 1.10,2013-02-22 17:02:00,
2013-02-22 11:17:00,31.8,30.0,29.79,SW,229,14.0,-999.0,93,-99.99,,,0.02,506,weatherlink.com 1.10,2013-02-22 17:17:00,
2013-02-22 11:32:00,31.5,30.0,29.80,SW,221,18.0,-999.0,92,-99.99,,,0.04,443,weatherlink.com 1.10,2013-02-22 17:32:00,
2013-02-22 11:47:00,31.0,29.0,29.80,SW,219,21.0,-999.0,91,-99.99,,,0.05,459,weatherlink.com 1.10,2013-02-22 17:47:00,
2013-02-22 12:02:00,30.9,28.0,29.80,WSW,239,21.0,-999.0,89,-99.99,,,0.07,353,weatherlink.com 1.10,2013-02-22 18:02:00,
2013-02-22 12:17:00,30.7,28.0,29.80,SW,234,23.0,-999.0,88,-99.99,,,0.07,364,weatherlink.com 1.10,2013-02-22 18:17:00,
2013-02-22 12:32:00,30.4,27.0,29.81,WSW,252,18.0,-999.0,87,-99.99,,,0.08,343,weatherlink.com 1.10,2013-02-22 18:32:00,
2013-02-22 12:47:00,30.1,26.0,29.81,WSW,248,22.0,-999.0,85,-99.99,,,0.08,332,weatherlink.com 1.10,2013-02-22 18:47:00,
2013-02-22 13:02:00,30.0,26.0,29.81,West,278,19.0,-999.0,84,-99.99,,,0.08,353,weatherlink.com 1.10,2013-02-22 19:02:00,
2013-02-22 13:17:00,30.0,25.0,29.82,West,269,21.0,-999.0,83,-99.99,,,0.09,306,weatherlink.com 1.10,2013-02-22 19:17:00,
2013-02-22 13:32:00,29.8,25.0,29.82,WSW,255,20.0,-999.0,83,-99.99,,,0.09,279,weatherlink.com 1.10,2013-02-22 19:32:00,
2013-02-22 13:47:00,29.7,25.0,29.83,West,278,15.0,-999.0,83,-99.99,,,0.09,232,weatherlink.com 1.10,2013-02-22 19:47:00,
2013-02-22 14:02:00,29.7,25.0,29.83,West,271,14.0,-999.0,82,-99.99,,,0.09,325,weatherlink.com 1.10,2013-02-22 20:02:00,
2013-02-22 14:17:00,30.0,25.0,29.83,WSW,254,19.0,-999.0,81,-99.99,,,0.09,327,weatherlink.com 1.10,2013-02-22 20:17:00,
2013-02-22 14:32:00,29.7,24.0,29.84,WSW,251,16.0,-999.0,80,-99.99,,,0.09,306,weatherlink.com 1.10,2013-02-22 20:32:00,
2013-02-22 14:47:00,29.4,24.0,29.84,WSW,251,24.0,-999.0,80,-99.99,,,0.09,243,weatherlink.com 1.10,2013-02-22 20:47:00,
2013-02-22 15:02:00,29.3,23.0,29.85,West,269,19.0,-999.0,78,-99.99,,,0.09,206,weatherlink.com 1.10,2013-02-22 21:02:00,
2013-02-22 15:17:00,29.4,23.0,29.85,WSW,257,21.0,-999.0,78,-99.99,,,0.09,190,weatherlink.com 1.10,2013-02-22 21:17:00,
2013-02-22 15:32:00,29.4,24.0,29.85,West,269,17.0,-999.0,79,-99.99,,,0.09,178,weatherlink.com 1.10,2013-02-22 21:32:00,
2013-02-22 15:47:00,29.4,24.0,29.86,West,270,20.0,-999.0,79,-99.99,,,0.09,149,weatherlink.com 1.10,2013-02-22 21:47:00,
2013-02-22 16:02:00,29.4,24.0,29.86,West,268,15.0,-999.0,80,-99.99,,,0.09,151,weatherlink.com 1.10,2013-02-22 22:02:00,
2013-02-22 16:17:00,29.0,23.0,29.86,West,273,17.0,-999.0,79,-99.99,,,0.09,120,weatherlink.com 1.10,2013-02-22 22:17:00,
2013-02-22 16:32:00,28.8,23.0,29.86,West,268,20.0,-999.0,79,-99.99,,,0.09,86,weatherlink.com 1.10,2013-02-22 22:32:00,
2013-02-22 16:47:00,28.8,23.0,29.87,West,262,13.0,-999.0,80,-99.99,,,0.09,69,weatherlink.com 1.10,2013-02-22 22:47:00,
2013-02-22 17:02:00,28.7,23.0,29.87,West,271,15.0,-999.0,79,-99.99,,,0.09,46,weatherlink.com 1.10,2013-02-22 23:02:00,
2013-02-22 17:17:00,28.5,22.0,29.87,West,266,13.0,-999.0,78,-99.99,,,0.09,26,weatherlink.com 1.10,2013-02-22 23:17:00,
2013-02-22 17:32:00,28.5,22.0,29.88,West,261,15.0,-999.0,78,-99.99,,,0.09,12,weatherlink.com 1.10,2013-02-22 23:32:00,
2013-02-22 17:47:00,28.2,22.0,29.89,West,262,13.0,-999.0,78,-99.99,,,0.09,0,weatherlink.com 1.10,2013-02-22 23:47:00,
2013-02-22 18:02:00,28.2,22.0,29.89,WSW,256,16.0,-999.0,77,-99.99,,,0.09,0,weatherlink.com 1.10,2013-02-23 00:02:00,
2013-02-22 18:17:00,28.1,22.0,29.89,West,275,15.0,-999.0,78,-99.99,,,0.09,0,weatherlink.com 1.10,2013-02-23 00:17:00,
2013-02-22 18:32:00,28.2,22.0,29.90,WSW,251,16.0,-999.0,78,-99.99,,,0.09,0,weatherlink.com 1.10,2013-02-23 00:32:00,
2013-02-22 18:47:00,28.2,22.0,29.90,WSW,258,14.0,-999.0,77,-99.99,,,0.09,0,weatherlink.com 1.10,2013-02-23 00:47:00,
2013-02-22 19:02:00,28.1,22.0,29.91,West,271,14.0,-999.0,79,-99.99,,,0.09,0,weatherlink.com 1.10,2013-02-23 01:02:00,
2013-02-22 19:17:00,28.1,23.0,29.91,West,271,14.0,-999.0,80,-99.99,,,0.09,0,weatherlink.com 1.10,2013-02-23 01:17:00,
2013-02-22 19:32:00,27.9,23.0,29.92,West,269,12.0,-999.0,80,-99.99,,,0.09,0,weatherlink.com 1.10,2013-02-23 01:32:00,
2013-02-22 19:47:00,27.9,23.0,29.92,West,267,13.0,-999.0,80,-99.99,,,0.09,0,weatherlink.com 1.10,2013-02-23 01:47:00,
2013-02-22 20:02:00,27.8,23.0,29.92,West,262,16.0,-999.0,81,-99.99,,,0.09,0,weatherlink.com 1.10,2013-02-23 02:02:00,
2013-02-22 20:17:00,27.8,23.0,29.92,West,261,15.0,-999.0,81,-99.99,,,0.09,0,weatherlink.com 1.10,2013-02-23 02:17:00,
2013-02-22 20:32:00,27.6,23.0,29.93,West,264,16.0,-999.0,81,-99.99,,,0.09,0,weatherlink.com 1.10,2013-02-23 02:32:00,
2013-02-22 20:47:00,27.2,22.0,29.92,WSW,256,14.0,-999.0,81,-99.99,,,0.09,0,weatherlink.com 1.10,2013-02-23 02:47:00,
2013-02-22 21:02:00,26.3,21.0,29.93,West,259,18.0,-999.0,81,-99.99,,,0.09,0,weatherlink.com 1.10,2013-02-23 03:02:00,
2013-02-22 21:17:00,25.4,21.0,29.93,West,265,14.0,-999.0,82,-99.99,,,0.09,0,weatherlink.com 1.10,2013-02-23 03:17:00,
2013-02-22 21:32:00,25.0,20.0,29.93,West,264,13.0,-999.0,81,-99.99,,,0.09,0,weatherlink.com 1.10,2013-02-23 03:32:00,
2013-02-22 21:47:00,23.9,20.0,29.94,West,267,14.0,-999.0,83,-99.99,,,0.09,0,weatherlink.com 1.10,2013-02-23 03:47:00,
2013-02-22 22:03:00,23.5,19.0,29.94,WSW,257,11.0,-999.0,83,-99.99,,,0.09,0,weatherlink.com 1.10,2013-02-23 04:03:00,
2013-02-22 22:18:00,22.2,18.0,29.94,WSW,254,14.0,-999.0,83,-99.99,,,0.09,0,weatherlink.com 1.10,2013-02-23 04:18:00,
2013-02-22 22:33:00,22.5,18.0,29.94,West,262,12.0,-999.0,84,-99.99,,,0.09,0,weatherlink.com 1.10,2013-02-23 04:33:00,
2013-02-22 22:48:00,23.3,19.0,29.94,West,260,15.0,-999.0,84,-99.99,,,0.09,0,weatherlink.com 1.10,2013-02-23 04:48:00,
2013-02-22 23:03:00,24.2,20.0,29.94,West,267,13.0,-999.0,83,-99.99,,,0.09,0,weatherlink.com 1.10,2013-02-23 05:03:00,
2013-02-22 23:18:00,24.5,20.0,29.93,West,265,14.0,-999.0,83,-99.99,,,0.09,0,weatherlink.com 1.10,2013-02-23 05:18:00,
2013-02-22 23:33:00,24.7,20.0,29.93,West,271,11.0,-999.0,82,-99.99,,,0.09,0,weatherlink.com 1.10,2013-02-23 05:33:00,
2013-02-22 23:48:00,24.7,20.0,29.94,West,274,14.0,-999.0,82,-99.99,,,0.09,0,weatherlink.com 1.10,2013-02-23 05:48:00,